Theta_e
310 309 309 308 308 309 310 311 311 310 310 311 311 310 310 307 307 304 302 301 300 299 297 296 296 296 298 300 302 303 306 307 312 315 316 319 319 320 321 321 322 322 323 323
310 310 310 309 309 310 310 312 311 310 310 311 310 309 306 306 305 303 302 300 299 298 296 296 295 294 295 296 297 299 301 304 306 307 308 309 309 306 306 312 315 315 316 318
311 312 310 311 313 314 313 313 312 313 309 309 309 309 309 306 303 302 300 298 298 297 296 295 294 293 293 293 294 295 296 298 300 303 306 306 305 305 306 304 306 307 309 311
311 311 312 313 313 313 315 311 311 312 310 311 308 313 309 307 305 302 299 297 296 296 295 295 294 293 293 293 294 294 295 296 297 299 299 299 297 296 296 298 300 302 302 303
315 311 311 313 313 310 312 309 310 310 309 309 309 310 308 306 306 302 299 298 296 295 294 294 293 292 292 292 293 293 293 293 294 295 296 295 294 294 294 296 297 298 299 299
310 308 308 310 310 309 308 309 309 306 307 311 308 311 312 309 307 302 299 297 296 294 294 293 293 293 292 291 290 290 290 290 290 291 291 291 291 289 289 289 289 289 291 292
312 311 309 310 313 308 308 310 314 315 312 315 314 311 312 306 305 302 299 297 295 293 292 292 292 292 291 291 289 289 289 288 288 288 288 288 287 286 286 285 285 285 285 285
317 319 310 310 312 314 309 310 312 311 316 314 312 317 313 303 300 299 298 296 294 293 292 291 292 292 291 290 289 288 288 287 287 286 286 286 286 285 285 285 285 284 284 284
316 317 308 307 307 310 311 312 310 312 311 317 314 310 306 302 299 297 296 295 295 293 292 291 291 291 291 290 288 287 287 287 286 286 286 285 285 285 285 285 285 284 284 284
314 316 313 310 309 306 309 308 312 310 309 315 313 313 311 305 301 298 296 295 294 293 292 291 291 290 290 289 288 287 286 286 286 286 285 285 285 285 285 285 285 285 285 284
313 312 312 311 312 311 307 309 309 312 309 308 306 311 306 306 301 299 297 296 295 293 292 290 290 289 289 288 288 287 287 286 286 286 286 286 286 286 286 286 285 285 284 284
312 311 308 312 309 308 309 308 308 313 310 308 311 311 306 305 301 298 298 297 295 294 291 289 289 289 288 288 287 287 287 286 286 286 286 286 286 286 286 285 285 284 284 284
311 308 302 306 305 308 310 309 309 309 307 305 313 309 302 300 299 298 299 298 295 292 288 288 288 288 288 288 287 287 286 286 286 286 286 285 285 285 284 284 283 283 282 282
309 305 305 310 303 306 306 307 306 303 300 301 308 305 303 301 301 298 295 296 293 289 288 287 286 287 288 288 287 287 287 286 286 286 286 286 285 284 283 282 281 281 280 280
307 305 308 305 305 305 303 304 304 305 303 302 302 300 300 299 296 295 294 296 292 289 286 285 285 286 287 288 288 287 287 287 287 286 286 285 283 282 281 280 280 279 279 279
301 299 298 295 300 302 302 301 300 302 302 301 302 301 299 296 293 291 289 292 291 290 288 286 285 286 287 288 288 288 287 287 286 286 284 284 284 283 280 279 278 278 277 277
301 296 294 299 296 293 292 294 296 295 295 295 295 295 290 293 293 291 290 288 288 287 287 286 286 288 289 289 288 287 287 286 286 285 285 284 283 280 278 277 276 275 274 274
299 297 296 295 286 291 294 291 293 294 294 292 291 287 288 290 290 288 287 287 287 287 287 287 288 288 287 287 287 286 285 285 284 283 281 279 277 276 275 274 273 272 271 271
297 298 295 297 288 291 294 292 291 292 291 287 288 287 291 289 287 288 287 286 287 287 288 289 289 288 287 286 285 284 283 282 281 279 276 275 274 273 272 270 270 269 268 268
293 296 296 280 286 289 290 288 289 289 288 281 281 283 287 287 285 286 286 287 287 288 288 288 288 287 285 283 282 282 280 278 277 275 274 272 271 270 269 268 267 266 266 266
284 285 297 294 292 286 288 289 289 288 289 282 282 286 286 286 288 288 286 286 288 288 288 287 285 284 283 281 280 278 276 274 273 272 271 270 269 268 268 267 266 265 264 264
288 287 285 284 288 289 286 287 290 289 289 288 288 289 287 287 288 286 286 286 287 286 285 285 283 281 279 278 276 274 272 271 270 270 269 268 268 268 267 265 265 264 263 263
288 287 285 287 287 289 286 289 290 289 289 290 289 288 288 287 287 286 286 285 285 286 283 282 281 278 276 274 273 272 271 270 269 268 268 268 267 266 265 264 264 263 263 263
288 286 287 287 288 288 289 290 289 288 288 288 288 288 287 286 286 286 285 285 284 283 280 278 276 275 273 272 270 270 269 268 267 266 266 266 266 265 264 264 264 262 262 263
288 287 286 287 289 288 288 287 287 287 287 287 286 286 286 285 286 286 285 283 283 280 278 276 274 272 271 270 269 269 267 266 266 265 265 265 264 264 263 263 263 263 264 264
289 290 289 289 290 289 289 288 287 287 287 286 286 286 285 285 285 283 282 282 279 276 274 273 271 270 269 269 268 268 267 266 265 264 264 264 263 263 263 263 263 264 265 266
Wind_Speed
1 4 7 12 10 4 3 3 6 5 6 3 6 6 14 7 2 10 7 7 9 11 13 19 24 28 29 30 31 31 30 27 18 13 9 7 6 5 3 2 4 6 9 13
3 7 12 3 5 5 5 4 7 7 5 1 5 12 3 8 5 6 7 8 9 10 11 18 22 28 33 34 34 32 30 26 23 19 15 12 14 18 19 12 9 6 3 5
8 5 4 7 4 4 6 6 4 8 5 3 3 7 2 5 8 10 11 10 11 9 9 11 19 25 30 35 35 35 32 31 27 22 15 13 13 16 17 18 17 18 13 10
6 6 6 3 6 6 6 5 6 3 3 4 2 4 5 4 5 8 8 7 7 7 7 11 14 21 28 30 31 33 34 34 31 27 27 27 26 23 20 20 18 15 16 15
7 4 4 5 8 7 7 2 2 1 3 2 3 1 6 7 5 5 5 6 6 6 6 6 14 20 24 27 28 29 30 32 30 30 30 28 28 24 22 21 20 19 18 16
5 1 4 7 2 4 3 4 7 4 3 2 7 7 4 5 6 7 6 6 6 6 6 9 15 19 23 23 26 27 29 29 29 29 29 28 27 26 27 28 28 26 24 23
1 4 2 2 3 3 4 5 3 3 2 5 3 3 6 7 0 14 14 7 7 6 6 6 9 15 19 21 22 24 25 27 27 29 30 29 28 28 28 27 26 25 26 26
5 4 7 4 5 6 5 7 5 6 3 4 4 5 3 4 7 10 8 7 6 6 5 5 8 11 14 16 17 19 21 22 22 24 25 24 24 25 26 25 24 23 23 23
6 4 1 2 2 6 4 4 3 5 2 3 4 1 1 4 6 6 7 7 7 6 6 6 8 10 12 13 14 15 16 18 18 18 18 20 20 21 21 20 22 24 23 22
5 2 3 1 2 3 4 6 3 2 2 5 5 5 4 8 9 7 7 8 7 7 7 6 9 11 11 11 10 11 13 13 13 14 14 15 15 16 17 18 20 22 24 25
5 3 3 3 5 7 1 2 2 3 5 5 2 5 3 10 14 13 9 9 10 8 7 6 11 12 11 9 7 7 8 9 10 11 12 14 16 18 20 21 22 23 25 25
4 4 4 7 2 3 2 6 6 5 5 3 2 8 2 8 13 12 11 9 7 6 7 9 15 13 10 8 7 5 3 3 3 4 6 9 14 18 20 22 23 23 25 26
7 1 2 7 5 1 4 4 3 5 3 6 4 6 1 5 7 8 7 7 7 7 8 7 12 12 12 10 9 9 7 4 2 1 3 6 10 15 19 21 24 25 27 28
5 3 7 9 5 3 3 3 3 5 3 3 10 6 3 5 8 6 8 7 8 9 8 7 8 13 13 12 12 11 10 8 7 5 5 9 14 19 22 23 24 24 26 27
4 6 4 1 3 2 4 6 8 8 6 7 13 9 17 8 7 8 7 2 6 7 8 8 7 12 14 15 15 13 11 8 6 6 8 11 17 22 24 25 27 26 25 26
3 1 2 3 2 5 7 12 7 12 14 10 15 21 16 7 4 5 7 7 6 6 7 7 8 14 17 18 17 16 12 9 7 7 11 17 23 28 29 30 31 32 33 32
5 6 3 5 4 4 8 8 17 13 10 8 11 14 1 4 5 6 7 6 6 6 6 7 8 15 19 19 18 15 10 6 6 12 17 21 25 27 29 33 37 36 37 37
6 5 2 2 2 2 6 3 4 9 10 5 3 3 5 4 2 4 5 6 6 6 6 7 13 15 13 10 9 10 7 6 9 13 17 19 22 24 30 36 36 37 34 31
2 4 3 4 4 7 13 6 7 7 7 6 7 3 4 3 3 3 5 6 7 7 11 14 15 14 13 13 11 9 6 8 11 13 15 17 20 28 29 31 30 30 33 34
2 1 4 3 5 9 6 3 2 5 5 6 5 5 6 6 3 6 7 6 9 15 16 15 16 15 16 12 9 7 7 9 10 14 16 21 24 24 28 29 31 31 30 31
3 1 13 10 8 8 8 5 1 5 7 4 6 6 6 5 7 4 8 6 12 15 14 14 18 19 16 12 8 6 6 7 10 13 19 21 23 26 28 30 29 31 31 29
7 7 5 3 2 7 8 5 7 6 3 5 6 5 6 9 8 7 9 7 11 12 13 18 19 16 12 9 7 5 6 8 12 15 17 20 22 24 26 27 31 31 29 27
2 7 6 11 7 4 7 6 11 6 5 6 6 8 9 9 9 10 10 9 13 16 20 21 20 16 11 8 6 5 8 12 13 15 17 20 22 22 23 26 29 28 24 23
4 5 4 5 5 7 8 13 5 7 9 7 8 9 8 9 10 11 8 8 9 15 19 20 16 14 11 8 6 7 10 10 12 15 18 20 22 24 24 25 26 24 23 22
7 7 5 4 8 5 7 8 9 10 10 9 8 9 12 9 12 11 9 7 11 16 17 16 13 11 9 8 6 8 10 10 12 14 17 18 20 21 24 23 25 25 25 26
8 8 5 7 14 9 8 8 9 8 10 10 10 9 10 11 13 7 6 8 14 17 16 13 10 9 7 7 9 9 9 10 11 15 16 18 20 20 20 21 25 29 25 27
Wind_Direction
207 116 207 208 201 184 176 214 240 258 257 225 257 277 290 332 13 101 99 97 81 63 45 35 37 46 55 55 53 52 55 54 65 72 72 73 63 56 85 212 248 269 261 258
62 223 231 175 173 207 238 247 259 272 260 189 292 292 40 23 35 72 91 70 71 62 42 35 33 40 48 52 51 54 57 58 59 59 62 79 85 70 54 53 52 48 9 291
171 222 151 172 200 186 220 202 235 234 344 295 330 293 184 58 71 65 54 62 60 62 53 36 37 37 43 48 51 52 55 54 56 63 77 84 75 56 50 45 40 36 33 25
234 238 188 183 239 186 277 208 228 187 113 228 43 278 304 148 84 65 70 64 63 58 53 54 52 53 57 57 59 60 59 58 58 60 63 65 63 57 47 45 47 50 40 35
244 190 153 173 223 157 230 100 131 168 172 74 295 298 259 132 148 131 107 98 93 88 81 64 56 60 60 59 59 59 58 58 60 62 65 64 65 61 56 49 42 38 37 31
243 286 178 201 146 169 110 51 37 48 101 283 215 180 263 187 183 148 144 138 126 105 92 85 82 75 68 63 60 60 60 57 56 56 58 61 60 56 54 50 45 41 38 32
222 224 241 166 119 55 87 70 309 335 360 231 139 146 254 321 347 155 151 147 129 132 116 94 80 76 73 67 64 63 61 58 54 55 52 52 51 50 49 46 45 41 36 32
184 284 173 182 189 179 173 165 165 222 215 268 327 238 290 11 75 104 117 133 139 141 123 123 121 104 90 81 78 80 74 67 59 56 54 51 50 47 39 32 30 27 26 24
170 257 160 172 162 134 186 176 170 106 352 283 247 63 52 74 82 116 136 143 174 163 168 160 128 109 96 86 76 70 67 76 69 64 57 48 41 34 32 24 17 8 6 6
216 145 239 184 102 53 151 167 81 8 171 241 272 264 207 187 179 171 173 192 194 195 185 159 142 126 116 105 97 85 78 66 63 62 54 43 28 25 23 14 8 1 353 349
146 126 253 123 209 187 130 196 177 170 155 180 252 257 219 175 180 183 198 207 205 202 184 166 152 142 137 135 114 91 70 59 45 36 29 25 19 4 7 1 356 351 341 343
193 144 179 199 292 297 216 192 168 195 223 240 169 263 336 182 173 175 199 214 214 195 177 165 159 158 151 149 144 130 118 94 71 38 24 10 4 358 354 346 343 337 334 336
176 205 28 342 344 265 206 199 152 107 71 207 198 242 6 155 167 202 195 230 221 176 170 160 163 170 178 179 181 189 192 198 212 306 332 338 342 342 340 334 332 330 331 327
102 148 175 222 186 140 187 175 142 121 140 194 227 288 147 207 197 244 268 241 201 184 167 170 180 192 193 197 203 206 208 210 207 232 277 311 330 336 332 328 326 324 324 320
140 193 174 52 130 155 225 207 179 201 197 200 266 233 261 220 235 252 261 230 177 174 181 188 193 202 206 213 220 223 228 231 246 268 296 318 326 331 330 327 326 324 320 315
21 142 88 315 230 224 264 264 202 223 243 245 253 268 267 287 164 166 202 201 191 191 198 208 218 218 223 231 242 246 246 243 257 280 312 323 322 322 323 323 323 322 319 316
141 135 111 254 62 53 303 225 236 249 222 226 234 245 249 244 219 221 219 199 192 189 194 203 217 229 239 248 259 252 243 231 265 296 304 309 311 312 316 316 316 317 314 313
143 115 95 216 32 263 256 267 249 232 253 204 256 240 212 230 268 181 185 180 202 206 206 222 236 240 234 225 208 194 198 242 281 298 307 311 312 313 312 312 313 314 313 308
151 130 149 187 204 312 287 239 183 178 271 198 190 224 231 169 73 279 217 180 181 199 229 244 250 241 215 190 184 193 226 268 289 305 315 313 309 310 312 311 309 306 305 304
144 43 163 117 174 214 243 291 94 108 284 223 155 207 188 137 155 240 207 193 222 234 245 245 226 204 183 181 193 229 264 285 302 308 308 308 312 313 310 308 307 306 301 297
92 86 213 220 237 281 247 204 198 109 252 186 189 214 173 186 209 215 191 228 241 251 258 232 197 188 189 192 215 236 262 289 297 294 302 310 314 314 313 312 311 309 303 297
158 157 191 132 210 274 177 73 169 206 188 185 201 200 196 219 243 218 225 237 251 224 199 194 187 182 189 208 226 233 281 289 289 299 306 310 315 316 315 315 316 312 301 296
224 194 183 186 203 218 206 192 217 166 182 211 198 220 207 217 234 237 234 233 236 231 200 194 187 181 192 211 234 279 292 297 301 304 310 315 319 319 319 315 313 301 296 297
253 170 211 88 223 225 202 226 227 193 211 220 214 219 212 223 238 240 236 239 229 201 184 182 175 181 189 206 249 290 292 293 297 304 313 322 323 322 320 317 311 292 295 296
207 157 155 249 258 248 244 230 232 236 221 235 235 226 238 229 246 234 246 231 216 182 179 182 182 185 194 224 269 289 291 291 299 306 317 322 320 318 316 309 306 296 297 295
202 215 211 232 245 223 242 233 225 217 226 225 228 249 237 218 234 216 230 214 177 167 175 178 183 189 212 254 275 284 283 287 300 305 319 318 319 317 307 302 303 315 308 306